Weather History for Rome, NY

Change the Weather History Date:

Sunday, October 30, 2011

  Actual Average Record
Temperature  
Mean Temperature 38 °F -  
Max Temperature 48 °F 52 °F 71 °F (1989)
Min Temperature 28 °F 30 °F 19 °F (1969)
Degree Days  
Heating Degree Days 27    
Moisture  
Dew Point 26 °F    
Average Humidity 66    
Maximum Humidity 92    
Minimum Humidity 39    
Precipitation  
Precipitation 0.00 in - - ()
Sea Level Pressure  
Sea Level Pressure 30.20 in    
Wind  
Wind Speed 6 mph (WNW)    
Max Wind Speed 14 mph    
Max Gust Speed 20 mph    
Visibility 10 miles    
Events      
Averages and records for this station are not official NWS values.
T = Trace of Precipitation, MM = Missing Value Source: NWS Daily Summary

Daily Weather History Graph

Daily Weather History Graph

Search for Another Location

Airport:

Trip Planner

Search our weather history database for the weather conditions in past years. The results will help you decide how hot, cold, wet, or windy it might be!

Date:

Astronomy

Oct. 30, 2011 Rise Set
Actual Time 7:33 AM EDT 5:56 PM EDT
Civil Twilight 7:04 AM EDT 6:25 PM EDT
Nautical Twilight 6:30 AM EDT 6:59 PM EDT
Astronomical Twilight 5:57 AM EDT 7:32 PM EDT
Moon 11:55 AM EDT (10/30) 9:17 PM EDT (10/30)
Length of Visible Light 11h 21m
Length of Day
10h 22m
Waxing Crescent, 20% of the Moon is Illuminated
Oct 30
Waxing Crescent
Nov 2
First Quarter
Nov 10
Full
Nov 18
Last Quarter
Nov 25
New

Hourly Weather History & Observations

Time (EDT) Temp. Windchill Dew Point Humidity Pressure Visibility Wind Dir Wind Speed Gust Speed Precip Events Conditions
12:53 AM 35.1 °F 31.0 °F 25.0 °F 67% 30.07 in 10.0 mi NNW 4.6 mph - N/A   Overcast
1:53 AM 34.0 °F 29.8 °F 25.0 °F 70% 30.07 in 10.0 mi WNW 4.6 mph - N/A   Scattered Clouds
2:53 AM 34.0 °F 29.8 °F 24.1 °F 67% 30.08 in 10.0 mi North 4.6 mph - N/A   Clear
3:53 AM 33.1 °F 25.5 °F 24.1 °F 70% 30.08 in 10.0 mi NW 9.2 mph - N/A   Clear
4:53 AM 30.0 °F 25.2 °F 24.1 °F 79% 30.10 in 10.0 mi North 4.6 mph - N/A   Clear
5:53 AM 28.9 °F - 24.1 °F 82% 30.13 in 10.0 mi Calm Calm - N/A   Clear
6:53 AM 28.0 °F - 24.1 °F 85% 30.14 in 10.0 mi Calm Calm - N/A   Clear
7:53 AM 28.0 °F 22.8 °F 24.1 °F 85% 30.17 in 10.0 mi NNW 4.6 mph - N/A   Clear
9:53 AM 36.0 °F 29.0 °F 25.0 °F 64% 30.23 in 10.0 mi West 9.2 mph - N/A   Clear
10:53 AM 39.9 °F 35.1 °F 27.0 °F 60% 30.23 in 10.0 mi WNW 6.9 mph - N/A   Clear
11:53 AM 45.0 °F 38.5 °F 23.0 °F 42% 30.23 in 10.0 mi West 13.8 mph - N/A   Clear
12:53 PM 48.0 °F - 24.1 °F 39% 30.23 in 10.0 mi WNW 10.4 mph - N/A   Clear
1:53 PM 48.0 °F - 24.1 °F 39% 30.23 in 10.0 mi WNW 10.4 mph 19.6 mph N/A   Clear
2:53 PM 48.9 °F - 26.1 °F 41% 30.23 in 10.0 mi WNW 13.8 mph 18.4 mph N/A   Clear
3:53 PM 48.9 °F - 27.0 °F 43% 30.23 in 10.0 mi WNW 11.5 mph - N/A   Clear
4:53 PM 46.9 °F - 28.9 °F 50% 30.23 in 10.0 mi West 9.2 mph - N/A   Clear
5:53 PM 45.0 °F 41.2 °F 28.9 °F 53% 30.25 in 10.0 mi West 6.9 mph - N/A   Clear
7:53 PM 37.9 °F - 28.9 °F 70% 30.29 in 10.0 mi Calm Calm - N/A   Clear
8:53 PM 33.1 °F - 28.9 °F 85% 30.30 in 10.0 mi Calm Calm - N/A   Clear
9:53 PM 33.1 °F - 28.9 °F 85% 30.32 in 10.0 mi Calm Calm - N/A   Clear
10:53 PM 32.0 °F - 28.9 °F 88% 30.33 in 10.0 mi Calm Calm - N/A   Clear
11:53 PM 30.9 °F 26.2 °F 28.9 °F 92% 30.33 in 10.0 mi ESE 4.6 mph - N/A   Clear